CW1793 Weather Reports


time (UTC)temp
C
wind
direction
speed
KPH
gust
KPH
rain 1hr
cm
rain 24hr
cm
rain mn
cm
humidity
%
barometer
mb
20260906214545 28 126 17.7 30.6 0.00 0.00 0.00 36 1003.8
20260906213046 28 115 9.7 33.8 0.00 0.00 0.00 37 1004.1
20260906211540 28 90 9.7 27.4 0.00 0.00 0.00 37 1004.2
20260906210039 30 90 17.7 35.4 0.00 0.00 0.00 34 1004.4
20260906204535 30 92 16.1 25.7 0.00 0.00 0.00 31 1004.6
20260906203034 30 51 11.3 25.7 0.00 0.00 0.00 32 1004.8
20260906201556 31 84 14.5 25.7 0.00 0.00 0.00 30 1005.1
20260906200031 31 103 3.2 22.5 0.00 0.00 0.00 31 1005.0
20260906194529 31 126 12.9 29.0 0.00 0.00 0.00 30 1005.3
20260906193031 31 165 12.9 25.7 0.00 0.00 0.00 30 1005.6
20260906191527 31 140 14.5 22.5 0.00 0.00 0.00 29 1005.7
20260906190029 31 40 6.4 20.9 0.00 0.00 0.00 30 1005.8
20260906184520 31 47 11.3 22.5 0.00 0.00 0.00 31 1006.2
20260906183018 30 102 6.4 20.9 0.00 0.00 0.00 33 1006.7
20260906181528 29 110 9.7 17.7 0.00 0.00 0.00 35 1007.1
20260906180012 29 71 11.3 19.3 0.00 0.00 0.00 35 1007.4
20260906174507 28 126 1.6 16.1 0.00 0.00 0.00 35 1007.6
20260906173005 27 83 4.8 16.1 0.00 0.00 0.00 39 1007.9
20260906171504 27 207 4.8 9.7 0.00 0.00 0.00 36 1007.9
20260906170103 27 87 1.6 11.3 0.00 0.00 0.00 39 1008.1
20260906164558 26 95 8.0 14.5 0.00 0.00 0.00 42 1008.2
20260906163055 26 119 3.2 11.3 0.00 0.00 0.00 46 1008.3
20260906161551 25 71 3.2 8.0 0.00 0.00 0.00 46 1008.6
20260906160048 24 347 0.0 16.1 0.00 0.00 0.00 48 1008.4
20260906154547 24 101 4.8 11.3 0.00 0.00 0.00 49 1008.4
20260906153052 23 79 1.6 6.4 0.00 0.00 0.00 52 1008.4
20260906151540 22 316 1.6 6.4 0.00 0.00 0.00 55 1008.4
20260906150036 21 309 0.0 8.0 0.00 0.00 0.00 59 1008.5
20260906144538 20 301 1.6 6.4 0.00 0.00 0.00 63 1008.5
20260906143033 19 301 4.8 9.7 0.00 0.00 0.00 63 1008.5
20260906141531 18 311 1.6 6.4 0.00 0.00 0.00 64 1008.7
20260906140037 17 259 3.2 6.4 0.00 0.00 0.00 62 1008.7
20260906134529 17 304 3.2 6.4 0.00 0.00 0.00 61 1008.5
20260906133041 16 271 0.0 6.4 0.00 0.00 0.00 62 1008.3
20260906131527 16 271 4.8 6.4 0.00 0.00 0.00 62 1008.2
20260906130027 16 271 4.8 9.7 0.00 0.00 0.00 61 1008.2
20260906124527 15 276 6.4 9.7 0.00 0.00 0.00 63 1008.2
20260906123035 16 285 3.2 6.4 0.00 0.00 0.00 61 1008.1
20260906121520 16 289 3.2 9.7 0.00 0.00 0.00 60 1008.2
20260906120017 16 285 4.8 8.0 0.00 0.00 0.00 59 1008.1
20260906114520 16 299 1.6 8.0 0.00 0.00 0.00 58 1008.1
20260906113014 17 294 4.8 8.0 0.00 0.00 0.00 56 1007.9
20260906111513 17 264 1.6 4.8 0.00 0.00 0.00 56 1007.8
20260906110012 17 264 1.6 6.4 0.00 0.00 0.00 55 1007.8
20260906104511 17 264 1.6 4.8 0.00 0.00 0.00 56 1007.7
20260906103011 17 264 1.6 4.8 0.00 0.00 0.00 56 1007.7
20260906101507 18 264 1.6 3.2 0.00 0.00 0.00 53 1007.9
20260906100008 18 264 1.6 4.8 0.00 0.00 0.00 52 1007.7
20260906094504 18 273 3.2 6.4 0.00 0.00 0.00 51 1007.4
20260906093011 18 269 3.2 6.4 0.00 0.00 0.00 51 1007.5
20260906091502 18 257 3.2 6.4 0.00 0.00 0.00 51 1007.5
20260906090001 18 257 3.2 8.0 0.00 0.00 0.00 51 1007.1
20260906084611 18 247 0.0 0.0 0.00 0.00 0.00 52 1007.1
20260906083059 18 247 0.0 0.0 0.00 0.00 0.00 54 1007.1
20260906081558 18 247 0.0 3.2 0.00 0.00 0.00 52 1007.2
20260906080056 18 246 4.8 8.0 0.00 0.00 0.00 52 1007.1
20260906074603 18 240 3.2 6.4 0.00 0.00 0.00 52 1007.3
20260906073057 19 277 0.0 3.2 0.00 0.00 0.00 51 1007.3
20260906071548 20 260 4.8 9.7 0.00 0.00 0.00 50 1007.1
20260906070055 20 235 6.4 8.0 0.00 0.00 0.00 49 1006.9
20260906064546 20 241 3.2 8.0 0.00 0.00 0.00 48 1006.9
20260906063045 20 280 4.8 11.3 0.00 0.00 0.00 50 1006.9
20260906061558 20 348 3.2 9.7 0.00 0.00 0.00 49 1006.9
20260906060037 21 325 1.6 12.9 0.00 0.00 0.00 44 1007.1
20260906054537 22 328 4.8 8.0 0.00 0.00 0.00 43 1007.2
20260906053041 22 11 0.0 4.8 0.00 0.00 0.00 41 1007.1
20260906051536 23 355 0.0 4.8 0.00 0.00 0.00 42 1007.1
20260906050042 23 5 0.0 9.7 0.00 0.00 0.00 50 1007.3
20260906044535 22 49 0.0 0.0 0.00 0.00 0.00 54 1007.4
20260906043042 22 49 0.0 1.6 0.00 0.00 0.00 53 1007.5
20260906041534 22 17 0.0 0.0 0.00 0.00 0.00 52 1007.6
20260906040034 23 315 1.6 6.4 0.00 0.00 0.00 49 1007.6
20260906034532 23 24 0.0 17.7 0.00 0.00 0.00 48 1007.7
20260906033031 23 179 0.0 4.8 0.00 0.00 0.00 44 1007.8
20260906031530 23 185 1.6 8.0 0.00 0.00 0.00 40 1007.7
20260906030030 24 162 0.0 6.4 0.00 0.00 0.00 31 1007.1
20260906024529 25 248 0.0 4.8 0.00 0.00 0.00 29 1006.3
20260906023029 25 248 3.2 6.4 0.00 0.00 0.00 29 1006.1
20260906021529 25 232 4.8 8.0 0.00 0.00 0.00 29 1006.1
20260906020029 26 227 0.0 0.0 0.00 0.00 0.00 28 1005.9
20260906014541 26 219 0.0 6.4 0.00 0.00 0.00 28 1005.8
20260906013031 26 211 3.2 9.7 0.00 0.00 0.00 27 1005.7
20260906011527 27 207 11.3 19.3 0.00 0.00 0.00 26 1005.7
20260906010024 28 218 6.4 12.9 0.00 0.00 0.00 25 1005.6
20260906004523 28 242 6.4 16.1 0.00 0.00 0.00 25 1005.7
20260906003023 28 238 6.4 16.1 0.00 0.00 0.00 25 1005.7
20260906001522 29 147 9.7 19.3 0.00 0.00 0.00 24 1005.7
20260906000022 29 159 11.3 16.1 0.00 0.00 0.00 24 1005.6
20260905234521 30 140 9.7 14.5 0.00 0.00 0.00 24 1005.6
20260905233021 29 177 8.0 19.3 0.00 0.00 0.00 25 1005.5
20260905231520 29 145 9.7 19.3 0.00 0.00 0.00 25 1005.4
20260905230018 30 149 11.3 19.3 0.00 0.00 0.00 23 1005.4
20260905224517 30 74 0.0 6.4 0.00 0.00 0.00 25 1005.4
20260905223018 30 83 1.6 9.7 0.00 0.00 0.00 25 1005.5
20260905221516 30 58 1.6 6.4 0.00 0.00 0.00 24 1005.6
20260905220013 30 92 1.6 8.0 0.00 0.00 0.00 23 1005.6